Wallops Island, VA

5:26 PM EDT on June 23, 2017 (GMT -0400)
Wallops Flight Facility

Weather History for KWAL - January, 2012

Change the Weather History Date:

Thursday, January 12, 2012

  Actual Average Record
Temperature  
Mean Temperature 54 °F 36 °F  
Max Temperature 61 °F 45 °F 70 °F (2017)
Min Temperature 47 °F 28 °F 7 °F (1981)
Degree Days  
Heating Degree Days 11    
Month to date heating degree days 271  
Since 1 July heating degree days 1424  
Cooling Degree Days 0    
Month to date cooling degree days 0  
Year to date cooling degree days 0  
Growing Degree Days 4 (Base 50)    
Moisture  
Dew Point 48 °F    
Average Humidity 78    
Maximum Humidity 93    
Minimum Humidity 62    
Precipitation  
Precipitation 0.03 in 0.10 in 0.81 in (2015)
Month to date precipitation 0.75 1.18  
Year to date precipitation 0.75 1.18  
Sea Level Pressure  
Sea Level Pressure 29.52 in    
Wind  
Wind Speed 13 mph (SW)    
Max Wind Speed 24 mph    
Max Gust Speed 33 mph    
Visibility 9 miles    
Events Rain    
T = Trace of Precipitation, MM = Missing Value Source: NWS Daily Summary

Daily Weather History Graph

Daily Weather History Graph

Search for Another Location

Airport or City:

Trip Planner

Search our weather history database for the weather conditions in past years. The results will help you decide how hot, cold, wet, or windy it might be!

Date:

Astronomy

Jan. 12, 2012 Rise Set
Actual Time 7:17 AM EST 5:02 PM EST
Civil Twilight 6:48 AM EST 5:31 PM EST
Nautical Twilight 6:16 AM EST 6:04 PM EST
Astronomical Twilight 5:44 AM EST 6:36 PM EST
Moon 9:00 PM EST (1/12) 9:04 AM EST (1/12)
Length of Visible Light 10h 43m
Length of Day
9h 45m
Waning Gibbous, 87% of the Moon is Illuminated
Jan 12
Waning Gibbous
Jan 16
Last Quarter
Jan 23
New
Jan 30
First Quarter
Feb 7
Full

Hourly Weather History & Observations

Time (EST) Temp. Dew Point Humidity Pressure Visibility Wind Dir Wind Speed Gust Speed Precip Events Conditions
12:25 AM 55.4 °F 53.6 °F 94% 29.55 in 9.0 mi SSE 15.0 mph - 0.00 in   Overcast
12:54 AM 54.0 °F 53.1 °F 97% 29.52 in 6.0 mi SSE 12.7 mph - 0.00 in   Overcast
1:54 AM 55.9 °F 54.0 °F 93% 29.50 in 8.0 mi South 8.1 mph - 0.02 in Rain Light Rain
2:37 AM 53.6 °F 53.6 °F 100% 29.48 in 9.0 mi South 11.5 mph - 0.01 in   Overcast
2:54 AM 54.0 °F 52.0 °F 93% 29.47 in 8.0 mi SSW 12.7 mph - 0.01 in   Mostly Cloudy
3:15 AM 53.6 °F 51.8 °F 94% 29.47 in 6.0 mi SSW 15.0 mph - N/A   Overcast
3:43 AM 53.6 °F 51.8 °F 94% 29.46 in 6.0 mi SW 15.0 mph - N/A   Overcast
3:54 AM 54.0 °F 52.0 °F 93% 29.45 in 7.0 mi SSW 13.8 mph - N/A   Overcast
4:35 AM 51.8 °F 50.0 °F 94% 29.45 in 4.0 mi SSW 9.2 mph - N/A   Mostly Cloudy
4:54 AM 55.9 °F 53.1 °F 90% 29.44 in 10.0 mi West 13.8 mph - N/A   Scattered Clouds
5:54 AM 55.0 °F 48.9 °F 80% 29.47 in 10.0 mi West 15.0 mph 27.6 mph N/A   Scattered Clouds
6:02 AM 53.6 °F 48.2 °F 82% 29.47 in 10.0 mi West 15.0 mph - N/A   Mostly Cloudy
6:41 AM 50.0 °F 46.4 °F 87% 29.49 in 10.0 mi West 13.8 mph 24.2 mph N/A   Partly Cloudy
6:54 AM 50.0 °F 46.0 °F 86% 29.49 in 10.0 mi West 12.7 mph 21.9 mph N/A   Scattered Clouds
7:04 AM 50.0 °F 46.4 °F 87% 29.50 in 10.0 mi West 11.5 mph 26.5 mph N/A   Mostly Cloudy
7:54 AM 48.9 °F 45.0 °F 86% 29.52 in 10.0 mi West 13.8 mph 25.3 mph N/A   Mostly Cloudy
8:17 AM 48.2 °F 44.6 °F 87% 29.53 in 10.0 mi West 18.4 mph 25.3 mph N/A   Scattered Clouds
8:24 AM 50.0 °F 44.6 °F 82% 29.54 in 10.0 mi West 16.1 mph 26.5 mph N/A   Mostly Cloudy
8:54 AM 50.0 °F 45.0 °F 83% 29.54 in 10.0 mi West 16.1 mph 24.2 mph N/A   Mostly Cloudy
9:04 AM 50.0 °F 44.6 °F 82% 29.55 in 10.0 mi West 12.7 mph 25.3 mph N/A   Scattered Clouds
9:54 AM 51.1 °F 45.0 °F 80% 29.56 in 10.0 mi West 15.0 mph 25.3 mph N/A   Scattered Clouds
10:54 AM 54.0 °F 45.0 °F 72% 29.56 in 10.0 mi West 10.4 mph 21.9 mph N/A   Overcast
11:54 AM 55.9 °F 46.0 °F 69% 29.55 in 10.0 mi West 12.7 mph - N/A   Overcast
12:54 PM 59.0 °F 46.0 °F 62% 29.53 in 10.0 mi West 13.8 mph - N/A   Overcast
1:54 PM 55.9 °F 48.0 °F 75% 29.52 in 10.0 mi South 13.8 mph - N/A   Overcast
2:54 PM 55.0 °F 46.9 °F 74% 29.54 in 10.0 mi SSW 16.1 mph - N/A   Clear
3:54 PM 53.1 °F 46.9 °F 80% 29.54 in 10.0 mi SSW 17.3 mph - N/A   Clear
4:54 PM 51.1 °F 46.9 °F 86% 29.54 in 10.0 mi SW 8.1 mph - N/A   Clear
5:54 PM 48.0 °F 45.0 °F 89% 29.56 in 10.0 mi SSW 6.9 mph - N/A   Clear
6:54 PM 48.9 °F 46.0 °F 90% 29.56 in 10.0 mi SSW 10.4 mph - N/A   Clear
7:54 PM 53.1 °F 46.9 °F 80% 29.56 in 10.0 mi WSW 13.8 mph 20.7 mph N/A   Clear
8:54 PM 52.0 °F 46.0 °F 80% 29.55 in 10.0 mi SW 12.7 mph - N/A   Clear
9:54 PM 51.1 °F 45.0 °F 80% 29.55 in 10.0 mi SW 12.7 mph - N/A   Clear
10:54 PM 48.9 °F 45.0 °F 86% 29.56 in 8.0 mi SSW 13.8 mph - N/A   Clear
11:54 PM 48.0 °F 45.0 °F 89% 29.53 in 10.0 mi SSW 10.4 mph - N/A   Partly Cloudy